Погода в Ронсе

Бельгия     50°45′01″N   3°35′48″E
темп.,
°C
ветер,
м/с
пор.,
м/с
влажн.,
%
обл.,
%
осадки,
мм/ч
давл.,
гПа
погр.,
м
26 октября, вт
вт2623:00+10ююз41092100 0.1 1018243
02:00+9ююз48951 0.2 1018160
05:00+9ююз379639 0.0 1019134
08:00+8ююз4896100 0.0 1020177
11:00+12ююз6128387 0.0 1021443
14:00+15юз7107188 0.0 10211091
17:00+15юз5972100 0.0 1021889
20:00+14юз6117799 0.0 1022680
27 октября, ср
ср2723:00+14юз6138070 0.0 1022471
02:00+11ююз512925 0.0 1022296
05:00+10ююз4109391 0.0 1022223
08:00+10ююз4109463 0.0 1022235
11:00+13ююз5107994 0.0 1023388
14:00+17юз685984 0.0 1022740
17:00+16ююз58625 0.0 1021614
20:00+11ю378436 0.0 1021116
28 октября, чт
чт2823:00+10ю38886 0.0 1020146
02:00+9ю3109228 0.0 1019182
05:00+9ю410935 0.0 1018190
08:00+8ююв410935 0.0 1017201
11:00+12ю611720 0.0 1017365
14:00+16ю710560 0.0 1015663
17:00+16ю611590 0.0 1012682
20:00+11ююв413794 0.0 1012272
29 октября, пт
пт2923:00+11ююв515735 0.0 1011337
02:00+11ю5147424 0.0 1010320
05:00+11ю61573100 0.0 1008348
08:00+10ююв6157599 0.0 1007363
11:00+13ю7156899 0.0 1006536
14:00+16ю8135839 0.0 1005836
17:00+15ю81661100 0.0 10041381
20:00+13ю81684100 0.8 1004835
30 октября, сб
сб3023:00+13ююз81487100 0.2 1004937
02:00+12ююз7138525 0.4 1005613
05:00+10ююз61292100 0.1 1006443
08:00+9ююз6139595 0.1 1007433
11:00+11ю6128592 0.0 1008580
14:00+14ююз71074100 0.0 1008755
17:00+13ююв5983100 0.0 1006569
20:00+12юв51288100 0.1 1005441